OPS 4682 DEB, 38385

Orbit data source: Space-Track

OPS 4682 DEB, 38385 is space debris in LEO originally from a launch on Sat, 03 Apr 1965 UTC launched from the Air Force Western Test Range (AFWTR). Debris objects in space refer to the collection of defunct objects orbiting the Earth. Examples of debris include non-operational satellites, rocket bodies, and fragments generated from explosions, collisions, or faulty payload assembly.

Loading next visibility...
Identifier
38385, 1965-027CN
Orbit
LEO
Country
Flag of USUS
Related business
Manufacturer
Unknown
Mission
Spacecraft
Bus & Motor
Unknown
Mass
Unknown
Launch date (UTC)
1965-04-03 (61 years ago)
Launch vehicle
Unknown
Launch site
Air Force Western Test Range (AFWTR)
Object type
Payload
Rocket body
Debris
Shape & HBR
Unknown shape, 0.1 m
Radar Cross Section
Medium (>0.1 m² and <1 m²)

Expand to show TLE details & history
Last TLE update: 3 days ago

TLE from 3 days ago
0 OPS 4682 DEB
1 38385U 65027CN  26148.34218010  .00000576  00000-0  19708-2 0  9992
2 38385  90.2377 358.4282 0045331 125.8786 234.6556 12.96695357612881
Epoch: 2026-05-28T08:12Z
TLE epoch observation values (Epoch: 2026-05-28T08:12:44.360Z)
Latitude
-0.00003°
Longitude
-10.64492°
Altitude
1,298.118 km
Speed
7.198 km/s
True Right ascension
23h 53m 42s
True Declination
0° 00' 00"
Sunlit
Object was in daylight at epoch
Visualization orbit readout
Latitude
Unknown
Longitude
Unknown
Altitude
Unknown
Speed
Unknown
Apparent Right ascension
Unknown
Apparent Declination
Unknown
Sunlit
N/A
Visualization observer readout
Local Sidereal Time
08:23:00
Azimuth
Unknown
Elevation
Unknown
Doppler factor
Unknown
Orbital elements
Apogee altitude
1,306.873 km
Perigee altitude
1,237.514 km
Semi-major axis
7,650.331 km
Eccentricity
0.00453
Inclination
90.2377°
RAAN
358.4282°
Arg. of periapsis
125.8786°
True anomaly
234.23327°
Mean anomaly
234.6556°
Eccentric anomaly
234.4443°
Mean motion
3.24357 °/min
Orbital period
110.99 mins
BSTAR
0.0019708
Loading maneuver chart data...
Computing Atmospheric mass density...
Loading historical data...
Loading historical data...
Loading historical data...
Loading historical data...
Loading historical data...
Loading historical data...
Loading historical data...

Documentation

Showing up to 5 results
|